Dover AFB, DE

4:12 AM EDT on May 26, 2017 (GMT -0400)
Dover Air Force Base

Weather History for KDOV - November, 2013

Change the Weather History Date:

Saturday, November 9, 2013

  Actual Average Record
Temperature  
Mean Temperature 42 °F -  
Max Temperature 53 °F 60 °F 79 °F (1986)
Min Temperature 31 °F 39 °F 25 °F (1967)
Degree Days  
Heating Degree Days 23    
Moisture  
Dew Point 31 °F    
Average Humidity 66    
Maximum Humidity 86    
Minimum Humidity 41    
Precipitation  
Precipitation 0.00 in - - ()
Sea Level Pressure  
Sea Level Pressure 30.22 in    
Wind  
Wind Speed 6 mph (SW)    
Max Wind Speed 15 mph    
Max Gust Speed -    
Visibility 10 miles    
Events      
Averages and records for this station are not official NWS values.
T = Trace of Precipitation, MM = Missing Value Source: NWS Daily Summary

Daily Weather History Graph

Daily Weather History Graph

Search for Another Location

Airport or City:

Trip Planner

Search our weather history database for the weather conditions in past years. The results will help you decide how hot, cold, wet, or windy it might be!

Date:

Astronomy

Nov. 09, 2013 Rise Set
Actual Time 6:38 AM EST 4:52 PM EST
Civil Twilight 6:10 AM EST 5:20 PM EST
Nautical Twilight 5:38 AM EST 5:52 PM EST
Astronomical Twilight 5:06 AM EST 6:24 PM EST
Moon 12:14 PM EST (11/9) 11:19 PM EST (11/9)
Length of Visible Light 11h 10m
Length of Day
10h 13m
Waxing Crescent, 44% of the Moon is Illuminated
Nov 9
Waxing Crescent
Nov 10
First Quarter
Nov 17
Full
Nov 25
Last Quarter
Dec 2
New

Hourly Weather History & Observations

Time (EST) Temp. Windchill Dew Point Humidity Pressure Visibility Wind Dir Wind Speed Gust Speed Precip Events Conditions
12:58 AM 36.5 °F 31.8 °F 27.5 °F 70% 30.30 in 10.0 mi WSW 5.8 mph - N/A   Clear
1:58 AM 35.8 °F 33.0 °F 27.3 °F 71% 30.31 in 10.0 mi WSW 3.5 mph - N/A   Clear
2:58 AM 35.1 °F 31.0 °F 27.3 °F 73% 30.30 in 10.0 mi West 4.6 mph - N/A   Clear
3:58 AM 33.8 °F 30.8 °F 27.7 °F 78% 30.32 in 10.0 mi West 3.5 mph - N/A   Clear
4:58 AM 33.8 °F - 28.4 °F 81% 30.32 in 10.0 mi West 2.3 mph - N/A   Clear
5:58 AM 31.8 °F - 27.7 °F 85% 30.34 in 10.0 mi West 2.3 mph - N/A   Clear
6:58 AM 32.4 °F 29.1 °F 28.4 °F 85% 30.34 in 10.0 mi SW 3.5 mph - N/A   Clear
7:58 AM 34.3 °F - 30.6 °F 86% 30.34 in 10.0 mi West 2.3 mph - N/A   Clear
10:55 AM 48.2 °F - 28.4 °F 46% 30.31 in 10.0 mi South 5.8 mph - N/A   Clear
11:55 AM 51.8 °F - 30.2 °F 44% 30.27 in 10.0 mi South 8.1 mph - N/A   Clear
12:55 PM 52.7 °F - 30.9 °F 43% 30.23 in 10.0 mi WSW 10.4 mph - N/A   Clear
1:55 PM 53.6 °F - 32.0 °F 44% 30.21 in 10.0 mi SSW 10.4 mph - N/A   Clear
2:55 PM 53.6 °F - 30.2 °F 41% 30.18 in 10.0 mi SSW 11.5 mph - N/A   Clear
3:55 PM 51.8 °F - 30.2 °F 44% 30.16 in 10.0 mi South 15.0 mph - N/A   Clear
4:55 PM 48.2 °F - 32.0 °F 54% 30.16 in 10.0 mi South 11.5 mph - N/A   Clear
5:55 PM 46.4 °F 41.5 °F 33.8 °F 62% 30.16 in 10.0 mi South 10.4 mph - N/A   Partly Cloudy
6:55 PM 44.6 °F 39.7 °F 35.6 °F 71% 30.14 in 10.0 mi SSE 9.2 mph - N/A   Partly Cloudy
8:58 PM 45.3 °F 39.7 °F 38.5 °F 77% 30.09 in 10.0 mi South 11.5 mph - N/A   Mostly Cloudy
9:58 PM 46.6 °F - 38.7 °F 74% 30.07 in 10.0 mi SSW 9.2 mph - N/A   Overcast
10:58 PM 44.2 °F 39.2 °F 37.8 °F 78% 30.05 in 10.0 mi South 9.2 mph - N/A   Partly Cloudy
11:58 PM 43.3 °F 38.1 °F 36.9 °F 78% 30.03 in 10.0 mi South 9.2 mph - N/A   Clear